星链-5178 (STARLINK-5178 )

导读

STARLINK-5178是美国太空探索技术公司(SpaceX)星链(Starlink)项目的卫星,于2022年10月20日发射升空。星链项目旨在构建全球低轨卫星互联网星座,为全球偏远地区等缺乏传统网络基础设施区域,提供高速低延迟宽带互联网服务。STARLINK-5178作为星链星座的组成部分,助力项目实现全球网络覆盖目标,推动卫星互联网服务发展,目前星链已在全球六十多个国家和地区落地服务,拥有超5000颗在轨卫星。

基本信息
目录编号:
54083
目录名称:
STARLINK-5178
国际标识:
2022-136AJ
轨道中心:
EARTH
卫星名称:
星链-5178
卫星全名:
星链-5178 (STARLINK-5178 )
卫星状态:
在轨 (已飞行1334 天)
发射日期:
2022-10-20 UTC
国别 :
美国 (US)
星等 :
--
轨道信息
数据来源 国际轨道数据
星历时间: 2026-06-14T20:51:55+0800
18小时前
查看轨道信息
半长轴: 6917.911km
偏心率: 0.0001218
轨道倾角: 53.160°
近地点辐角 82.233°
升交点赤经 259.346°
平近点角 277.880°
近地点: 538.931km
远地点: 540.617km
周期: 95.438分钟
每日圈数: 15.088302
详细信息
固有亮度:
5
最大亮度:
2.5
卫星平台:
Starlink v1.5
覆盖范围:
全球
运营商:
太空探索技术公司
运营商所在国:
美国
制造商(研发单位):
太空探索技术公司
制造商所在国:
美国
使用方式:
暂无
卫星简介
星链(Starlink)计划是由太空探索技术公司(SpaceX)提出的一个巨型低轨卫星互联网星座项目,计划在2019年至2024年间在太空搭建由约1.2万颗卫星组成的“星链”网络,其中1584颗将部署在地球上空550千米处的近地轨道,并从2020年开始工作。该卫星仍在工作。
2D轨道图
3D轨道图
轨道高度分析图
轨道倾角分析图
轨道综合分析图
查看轨道综合分析图